| time (UTC) | temp F | wind direction | speed knots | gust knots | rain 1hr in | rain 24hr in | rain mn in | humidity % | barometer mb |
| 20260504203017 | 71 | 248 | 1.7 | 5.2 | 0.00 | 0.00 | 0.00 | 22 | 1007.7 |
| 20260504200017 | 72 | 225 | 1.7 | 10.4 | 0.00 | 0.00 | 0.00 | 22 | 1007.9 |
| 20260504193016 | 73 | 225 | 1.7 | 7.0 | 0.00 | 0.00 | 0.00 | 21 | 1008.3 |
| 20260504190016 | 74 | 225 | 1.7 | 7.0 | 0.00 | 0.00 | 0.00 | 24 | 1008.5 |
| 20260504183016 | 73 | 225 | 1.7 | 7.0 | 0.00 | 0.00 | 0.00 | 22 | 1009.0 |
| 20260504180017 | 72 | 225 | 1.7 | 6.1 | 0.00 | 0.00 | 0.00 | 26 | 1009.2 |
| 20260504173016 | 71 | 225 | 1.7 | 8.7 | 0.00 | 0.00 | 0.00 | 25 | 1009.5 |
| 20260504050016 | 41 | 0.0 | 0.0 | 0.00 | 0.00 | 0.00 | 61 | 1011.7 | |
| 20260504043017 | 42 | 0.0 | 0.0 | 0.00 | 0.00 | 0.00 | 59 | 1011.8 | |
| 20260504040016 | 42 | 0.0 | 0.0 | 0.00 | 0.00 | 0.00 | 57 | 1011.6 | |
| 20260504033017 | 43 | 0.0 | 0.0 | 0.00 | 0.00 | 0.00 | 55 | 1011.7 | |
| 20260504030016 | 44 | 0.0 | 0.0 | 0.00 | 0.00 | 0.00 | 55 | 1011.5 | |
| 20260504023018 | 45 | 0.0 | 0.0 | 0.00 | 0.00 | 0.00 | 51 | 1011.5 | |
| 20260504020016 | 47 | 0.0 | 0.0 | 0.00 | 0.00 | 0.00 | 48 | 1011.3 | |
| 20260504013016 | 48 | 0.0 | 0.0 | 0.00 | 0.00 | 0.00 | 42 | 1011.2 | |
| 20260504010036 | 49 | 0.0 | 0.0 | 0.00 | 0.00 | 0.00 | 39 | 1011.0 | |
| 20260504003038 | 52 | 0.0 | 0.0 | 0.00 | 0.00 | 0.00 | 34 | 1010.8 | |
| 20260504000017 | 55 | 0.0 | 2.6 | 0.00 | 0.00 | 0.00 | 30 | 1010.2 | |
| 20260503233016 | 56 | 0.0 | 1.7 | 0.00 | 0.00 | 0.00 | 26 | 1010.0 | |
| 20260503230016 | 56 | 0.0 | 2.6 | 0.00 | 0.00 | 0.00 | 24 | 1009.7 | |
| 20260503223036 | 57 | 338 | 0.9 | 2.6 | 0.00 | 0.00 | 0.00 | 21 | 1009.5 |
| 20260503220016 | 58 | 23 | 0.9 | 3.5 | 0.00 | 0.00 | 0.00 | 22 | 1009.5 |
| 20260503213036 | 58 | 23 | 0.9 | 7.0 | 0.00 | 0.00 | 0.00 | 19 | 1009.2 |
| 20260503210016 | 58 | 23 | 1.7 | 6.1 | 0.00 | 0.00 | 0.00 | 21 | 1009.3 |